| time (UTC) | temp C | wind direction | speed KPH | gust KPH | rain 1hr cm | rain 24hr cm | rain mn cm | humidity % | barometer mb |
| 20260508054510 | 17 | 190 | 1.6 | 4.8 | 0.00 | 0.00 | 0.00 | 71 | 1010.1 |
| 20260508053005 | 16 | 5 | 0.0 | 1.6 | 0.00 | 0.00 | 0.00 | 73 | 1010.0 |
| 20260508050004 | 15 | 143 | 1.6 | 4.8 | 0.00 | 0.00 | 0.00 | 74 | 1009.9 |
| 20260508044502 | 15 | 185 | 0.0 | 3.2 | 0.00 | 0.00 | 0.00 | 74 | 1009.8 |
| 20260508043003 | 16 | 159 | 1.6 | 6.4 | 0.00 | 0.00 | 0.00 | 72 | 1009.8 |
| 20260508041503 | 15 | 168 | 1.6 | 4.8 | 0.00 | 0.00 | 0.00 | 73 | 1009.8 |
| 20260508040003 | 15 | 161 | 1.6 | 3.2 | 0.00 | 0.00 | 0.00 | 70 | 1009.8 |
| 20260508034503 | 15 | 0 | 0.0 | 0.0 | 0.00 | 0.00 | 0.00 | 72 | 1009.8 |
| 20260508033006 | 15 | 0 | 0.0 | 0.0 | 0.00 | 0.00 | 0.00 | 70 | 1009.8 |
| 20260508031503 | 16 | 140 | 0.0 | 3.2 | 0.00 | 0.00 | 0.00 | 66 | 1009.8 |
| 20260508030003 | 16 | 67 | 1.6 | 1.6 | 0.00 | 0.00 | 0.00 | 65 | 1009.8 |
| 20260508024504 | 16 | 113 | 4.8 | 9.7 | 0.00 | 0.00 | 0.00 | 64 | 1009.5 |
| 20260508023007 | 16 | 132 | 9.7 | 17.7 | 0.00 | 0.00 | 0.00 | 65 | 1009.6 |
| 20260508021504 | 16 | 124 | 11.3 | 14.5 | 0.00 | 0.00 | 0.00 | 64 | 1009.7 |
| 20260508020003 | 16 | 119 | 9.7 | 19.3 | 0.00 | 0.00 | 0.00 | 66 | 1009.7 |
| 20260508014503 | 16 | 120 | 12.9 | 19.3 | 0.00 | 0.00 | 0.00 | 64 | 1009.7 |
| 20260508013008 | 17 | 127 | 9.7 | 19.3 | 0.00 | 0.00 | 0.00 | 60 | 1009.8 |
| 20260508011504 | 17 | 119 | 9.7 | 17.7 | 0.00 | 0.00 | 0.00 | 59 | 1009.8 |
| 20260508010004 | 17 | 125 | 9.7 | 17.7 | 0.00 | 0.00 | 0.00 | 58 | 1009.9 |
| 20260508004504 | 17 | 118 | 8.0 | 16.1 | 0.00 | 0.00 | 0.00 | 58 | 1010.2 |
| 20260508001505 | 16 | 113 | 9.7 | 16.1 | 0.00 | 0.00 | 0.00 | 61 | 1010.7 |
| 20260508000004 | 16 | 121 | 9.7 | 16.1 | 0.00 | 0.00 | 0.00 | 61 | 1010.9 |
| 20260507234503 | 16 | 123 | 9.7 | 19.3 | 0.00 | 0.00 | 0.00 | 64 | 1011.0 |
| 20260507233003 | 16 | 107 | 4.8 | 17.7 | 0.00 | 0.00 | 0.00 | 68 | 1011.3 |
| 20260507231504 | 15 | 4 | 4.8 | 9.7 | 0.00 | 0.00 | 0.00 | 74 | 1011.5 |
| 20260507230004 | 16 | 35 | 3.2 | 8.0 | 0.00 | 0.00 | 0.00 | 65 | 1011.4 |
| 20260507224504 | 17 | 116 | 6.4 | 11.3 | 0.00 | 0.00 | 0.00 | 61 | 1011.6 |
| 20260507223004 | 17 | 121 | 9.7 | 19.3 | 0.00 | 0.00 | 0.00 | 62 | 1011.7 |
| 20260507220005 | 17 | 124 | 11.3 | 19.3 | 0.00 | 0.00 | 0.00 | 63 | 1011.8 |
| 20260507211503 | 17 | 121 | 11.3 | 17.7 | 0.00 | 0.00 | 0.00 | 69 | 1011.8 |
| 20260507204505 | 17 | 126 | 11.3 | 19.3 | 0.00 | 0.00 | 0.00 | 76 | 1011.8 |
| 20260507203004 | 17 | 126 | 11.3 | 20.9 | 0.00 | 0.00 | 0.00 | 75 | 1011.8 |
| 20260507201503 | 17 | 125 | 11.3 | 24.1 | 0.00 | 0.00 | 0.00 | 75 | 1011.7 |
| 20260507200003 | 17 | 128 | 12.9 | 19.3 | 0.00 | 0.00 | 0.00 | 76 | 1011.9 |
| 20260507194503 | 17 | 124 | 12.9 | 22.5 | 0.00 | 0.00 | 0.00 | 76 | 1011.7 |
| 20260507193003 | 17 | 127 | 12.9 | 20.9 | 0.00 | 0.00 | 0.00 | 73 | 1011.8 |
| 20260507191503 | 17 | 123 | 11.3 | 22.5 | 0.00 | 0.00 | 0.00 | 73 | 1011.6 |
| 20260507190004 | 17 | 128 | 12.9 | 20.9 | 0.00 | 0.00 | 0.00 | 73 | 1011.7 |
| 20260507180003 | 17 | 123 | 9.7 | 17.7 | 0.00 | 0.00 | 0.00 | 71 | 1012.0 |
| 20260507174504 | 18 | 126 | 9.7 | 17.7 | 0.00 | 0.00 | 0.00 | 72 | 1011.8 |
| 20260507173003 | 18 | 125 | 9.7 | 17.7 | 0.00 | 0.00 | 0.00 | 71 | 1011.9 |
| 20260507171503 | 18 | 121 | 9.7 | 16.1 | 0.00 | 0.00 | 0.00 | 71 | 1012.0 |
| 20260507170004 | 18 | 123 | 9.7 | 17.7 | 0.00 | 0.00 | 0.00 | 71 | 1011.8 |
| 20260507164507 | 18 | 115 | 9.7 | 17.7 | 0.00 | 0.00 | 0.00 | 72 | 1011.9 |
| 20260507163006 | 19 | 118 | 8.0 | 19.3 | 0.00 | 0.00 | 0.00 | 71 | 1011.9 |
| 20260507160003 | 20 | 106 | 9.7 | 14.5 | 0.00 | 0.00 | 0.00 | 68 | 1011.9 |
| 20260507154504 | 20 | 110 | 8.0 | 17.7 | 0.00 | 0.00 | 0.00 | 67 | 1011.9 |
| 20260507153006 | 20 | 40 | 8.0 | 14.5 | 0.00 | 0.00 | 0.00 | 65 | 1011.9 |
| 20260507151503 | 21 | 131 | 4.8 | 12.9 | 0.00 | 0.00 | 0.00 | 63 | 1011.8 |
| 20260507144506 | 21 | 203 | 4.8 | 14.5 | 0.00 | 0.00 | 0.00 | 56 | 1012.1 |
| 20260507143004 | 21 | 275 | 4.8 | 9.7 | 0.00 | 0.00 | 0.00 | 55 | 1012.1 |
| 20260507141503 | 21 | 224 | 6.4 | 12.9 | 0.00 | 0.00 | 0.00 | 56 | 1012.2 |
| 20260507134504 | 21 | 232 | 6.4 | 11.3 | 0.00 | 0.00 | 0.00 | 56 | 1012.3 |
| 20260507133005 | 21 | 228 | 6.4 | 11.3 | 0.00 | 0.00 | 0.00 | 55 | 1012.3 |
| 20260507131504 | 21 | 183 | 4.8 | 11.3 | 0.00 | 0.00 | 0.00 | 56 | 1012.8 |
| 20260507124511 | 21 | 190 | 6.4 | 12.9 | 0.00 | 0.00 | 0.00 | 58 | 1012.9 |
| 20260507123009 | 21 | 204 | 6.4 | 14.5 | 0.00 | 0.00 | 0.00 | 58 | 1013.0 |
| 20260507120004 | 21 | 359 | 4.8 | 12.9 | 0.00 | 0.00 | 0.00 | 59 | 1012.9 |
| 20260507114504 | 21 | 63 | 3.2 | 9.7 | 0.00 | 0.00 | 0.00 | 58 | 1012.9 |
| 20260507111519 | 21 | 248 | 1.6 | 6.4 | 0.00 | 0.00 | 0.00 | 59 | 1013.0 |
| 20260507110005 | 20 | 342 | 4.8 | 6.4 | 0.00 | 0.00 | 0.00 | 62 | 1013.3 |
| 20260507104518 | 20 | 17 | 6.4 | 11.3 | 0.00 | 0.00 | 0.00 | 63 | 1013.4 |
| 20260507103004 | 19 | 76 | 8.0 | 14.5 | 0.00 | 0.00 | 0.00 | 63 | 1013.3 |
| 20260507101507 | 19 | 131 | 3.2 | 14.5 | 0.00 | 0.00 | 0.00 | 65 | 1013.3 |
| 20260507094503 | 20 | 230 | 4.8 | 9.7 | 0.00 | 0.00 | 0.00 | 67 | 1013.3 |
| 20260507093005 | 20 | 104 | 1.6 | 9.7 | 0.00 | 0.00 | 0.00 | 67 | 1013.2 |
| 20260507091503 | 20 | 226 | 1.6 | 4.8 | 0.00 | 0.00 | 0.00 | 65 | 1013.2 |
| 20260507090004 | 19 | 331 | 4.8 | 9.7 | 0.00 | 0.00 | 0.00 | 71 | 1013.1 |
| 20260507084504 | 18 | 327 | 6.4 | 11.3 | 0.00 | 0.00 | 0.00 | 72 | 1013.0 |
| 20260507083004 | 19 | 326 | 3.2 | 9.7 | 0.00 | 0.00 | 0.00 | 72 | 1013.2 |
| 20260507080004 | 18 | 3 | 4.8 | 11.3 | 0.00 | 0.00 | 0.00 | 74 | 1013.1 |
| 20260507074505 | 18 | 333 | 3.2 | 8.0 | 0.00 | 0.00 | 0.00 | 75 | 1013.2 |
| 20260507071505 | 17 | 328 | 1.6 | 8.0 | 0.00 | 0.00 | 0.00 | 75 | 1013.3 |
| 20260507070009 | 17 | 348 | 3.2 | 6.4 | 0.00 | 0.00 | 0.00 | 77 | 1013.1 |
| 20260507063006 | 16 | 356 | 0.0 | 6.4 | 0.00 | 0.00 | 0.00 | 77 | 1013.0 |
| 20260507060005 | 15 | 358 | 1.6 | 6.4 | 0.00 | 0.03 | 0.00 | 80 | 1012.8 |